ARIANE 3 DEB, 27027

Orbit data source: Space-Track

ARIANE 3 DEB, 27027 is space debris in HEO originally from a launch on Thu, 08 Sep 1988 UTC launched from the French Guiana (FRGUI). Debris objects in space refer to the collection of defunct objects orbiting the Earth. Examples of debris include non-operational satellites, rocket bodies, and fragments generated from explosions, collisions, or faulty payload assembly.

Loading next visibility...
Identifier
27027, 1988-081K
Orbit
HEO
Country
Flag of FRFR
Related business
Manufacturer
Unknown
Mission
Spacecraft
Bus & Motor
Unknown
Mass
Unknown
Launch date (UTC)
1988-09-08 (37 years ago)
Launch vehicle
Unknown
Launch site
French Guiana (FRGUI)
Object type
Payload
Rocket body
Debris
Shape & HBR
Unknown shape, 0.3 m
Radar Cross Section
Medium (>0.1 m² and <1 m²)

Expand to show TLE details & history
Last TLE update: 12 hours ago

TLE from 12 hours ago
0 ARIANE 3 DEB
1 27027U 88081K   26033.92653814  .00000179  00000-0  70937-2 0  9990
2 27027   8.7910 344.3012 7160285 302.2889 307.5435  2.21513137216262
Epoch: 2026-02-02T22:14Z
TLE epoch observation values (Epoch: 2026-02-02T22:14:12.895Z)
Latitude
2.418°
Longitude
41.96136°
Altitude
19,593.883 km
Speed
3.829 km/s
True Right ascension
09h 54m 31s
True Declination
2° 24' 51"
Sunlit
Object was in daylight at epoch
Visualization orbit readout
Latitude
Unknown
Longitude
Unknown
Altitude
Unknown
Speed
Unknown
Apparent Right ascension
Unknown
Apparent Declination
Unknown
Sunlit
N/A
Visualization observer readout
Local Sidereal Time
12:20:07
Azimuth
Unknown
Elevation
Unknown
Doppler factor
Unknown
Orbital elements
Apogee altitude
36,287.813 km
Perigee altitude
682.302 km
Semi-major axis
24,863.194 km
Eccentricity
0.71603
Inclination
8.791°
RAAN
344.3012°
Arg. of periapsis
302.2889°
True anomaly
221.9418°
Mean anomaly
307.5435°
Eccentric anomaly
266.5907°
Mean motion
0.55361 °/min
Orbital period
650.27 mins
BSTAR
0.0070937
Loading maneuver chart data...
Computing Atmospheric mass density...
Loading historical data...
Loading historical data...
Loading historical data...
Loading historical data...
Loading historical data...
Loading historical data...
Loading historical data...

Documentation

Showing up to 5 results
|